Wind_Speed
19 19 18 18 18 18 18 18 18 18 18 18 18 17 16 16 15 14 14 13 13 13 13 13 14 14 14 13 13 13 13 14 14 14 14 14 15 15 16 16 17 16 15 14
21 20 20 20 20 19 19 19 19 19 19 18 17 17 16 16 14 14 13 13 13 13 12 13 14 14 14 13 13 13 13 13 14 15 14 14 14 15 16 16 16 15 15 15
22 22 22 22 20 20 20 20 20 20 20 19 18 17 16 15 14 13 13 13 12 12 12 13 14 14 13 13 13 13 13 13 14 14 14 14 15 15 15 15 15 15 16 16
24 24 25 23 22 22 22 22 21 21 20 19 18 17 16 16 15 14 13 13 12 12 12 13 14 13 13 13 13 13 13 13 13 13 13 14 14 14 14 14 14 15 16 17
25 25 26 25 23 23 23 23 23 22 21 19 18 16 16 15 15 14 13 13 13 13 14 14 14 13 13 14 13 13 12 12 12 12 12 13 14 14 14 14 14 15 16 17
26 27 27 27 26 25 24 24 23 22 21 20 18 17 17 16 15 15 14 14 14 14 14 14 14 14 14 13 13 13 12 12 12 11 11 12 13 14 13 14 14 15 16 17
27 28 28 28 27 25 25 25 24 23 22 21 20 19 18 17 17 17 15 14 14 14 14 14 14 14 13 13 13 12 12 12 12 11 11 12 13 13 13 14 15 16 16 18
27 28 29 28 27 27 27 27 26 24 23 22 21 20 19 19 19 18 16 15 16 16 15 15 14 14 14 13 12 12 11 11 11 10 11 12 12 12 12 13 14 15 16 17
29 29 30 29 29 28 27 27 26 25 23 23 22 21 20 20 19 18 17 17 17 17 16 16 15 14 13 12 12 11 11 11 11 10 11 11 11 11 12 13 14 15 15 16
29 29 29 29 28 28 27 27 27 26 25 24 23 22 21 21 20 19 18 18 17 17 17 16 15 14 13 13 13 13 12 12 12 12 12 12 11 11 12 12 13 14 15 16
30 29 29 29 29 28 28 27 27 27 26 26 24 23 23 22 21 20 19 19 19 18 18 17 16 15 15 14 13 13 13 13 13 13 13 13 12 12 12 14 14 14 15 16
29 29 29 28 28 29 29 28 27 27 27 26 25 25 24 23 22 21 20 20 20 19 18 17 17 16 15 14 14 13 13 13 13 14 13 13 13 13 14 14 14 14 15 16
29 29 29 29 28 28 29 29 29 28 28 27 26 25 24 23 22 22 22 21 20 20 19 18 17 17 16 16 15 14 14 14 14 13 14 14 14 14 14 14 15 15 16 16
30 30 30 29 29 29 29 29 29 29 29 28 27 26 25 24 23 23 22 22 21 20 19 19 18 18 17 17 16 15 15 15 15 14 14 15 15 15 14 15 15 16 16 16
30 30 30 30 30 30 30 29 29 29 29 28 27 27 26 25 24 24 23 23 22 21 21 20 19 19 18 18 17 16 16 16 16 15 15 15 15 15 15 16 16 16 16 16
30 30 30 30 29 29 29 29 29 29 29 28 27 26 26 25 25 24 24 23 23 23 22 21 20 20 20 19 19 18 18 17 17 16 16 16 16 16 16 16 16 16 16 16
30 30 29 29 29 29 29 28 28 29 29 28 27 26 26 26 25 25 24 24 24 24 24 23 22 21 21 20 19 19 18 17 17 17 17 17 17 16 16 16 16 16 16 15
29 30 30 29 29 28 27 27 27 27 27 27 27 27 26 26 26 25 24 24 25 24 24 24 24 23 22 20 20 19 19 18 18 18 17 17 17 17 17 17 17 16 16 15
29 28 28 29 28 28 28 27 27 26 27 27 27 27 27 27 27 27 26 25 24 24 24 24 23 22 21 21 20 19 18 18 18 18 18 17 17 16 16 16 15 15 15 15
27 27 28 28 28 28 28 27 27 26 26 26 25 25 25 26 26 26 25 24 23 23 24 23 23 22 22 21 20 20 19 18 18 18 18 17 17 16 16 15 15 15 15 15
25 25 25 26 26 26 26 25 25 25 26 26 25 26 25 25 24 24 24 23 23 24 24 24 23 23 23 22 21 20 19 19 19 18 17 17 17 16 16 15 15 14 14 14
24 24 24 25 25 25 25 25 25 25 25 25 26 25 24 24 24 24 24 23 23 23 23 23 22 22 22 21 20 20 19 19 18 18 18 17 17 16 16 15 14 14 14 13
21 22 24 25 25 25 25 25 25 25 25 25 24 25 24 23 23 24 24 24 23 23 24 23 22 21 21 21 21 20 19 19 19 18 18 17 16 16 16 15 15 15 14 14
22 23 23 24 24 25 25 25 25 25 26 26 26 26 25 24 24 23 23 22 23 23 23 22 22 22 21 21 20 19 19 18 18 18 18 17 16 16 15 15 15 15 15 14
22 22 22 22 22 23 24 24 25 25 25 25 26 27 26 25 24 23 23 23 23 22 22 22 22 21 20 20 20 19 18 18 17 18 17 16 16 16 16 15 15 14 14 14
20 20 21 22 22 22 22 22 23 24 24 24 24 25 25 25 25 25 25 24 23 23 23 23 23 23 21 20 19 19 19 18 18 18 17 16 15 15 16 15 15 14 14 14
20 20 20 20 21 21 21 22 22 22 22 23 23 23 23 23 24 25 24 23 23 23 23 23 22 22 22 21 20 19 19 18 18 17 16 16 15 15 16 16 15 15 15 14
Wind_Direction
257 261 264 268 271 274 277 280 283 286 288 292 296 299 301 303 304 308 310 313 314 312 311 313 318 322 325 329 333 338 341 342 344 347 348 349 349 348 345 345 346 348 350 351
260 263 265 268 270 273 276 280 282 283 285 290 293 295 298 300 302 305 308 310 311 312 311 312 316 320 324 327 331 336 338 339 342 345 348 350 353 352 352 353 356 356 355 355
261 263 265 266 270 272 275 278 280 282 285 289 291 291 293 295 298 300 305 307 306 308 309 313 316 320 323 326 329 331 332 334 339 344 347 349 350 354 356 356 357 358 356 355
263 264 266 269 270 270 273 275 278 280 282 286 289 287 287 289 291 293 298 303 304 306 307 310 315 318 321 323 324 325 326 328 333 336 339 344 350 352 353 355 357 358 358 357
263 265 268 268 269 271 271 272 274 277 279 282 285 283 283 284 284 287 293 297 299 303 306 308 311 312 316 320 320 319 323 324 327 330 337 346 348 350 351 352 354 356 356 356
262 265 267 269 271 271 272 271 271 274 276 277 280 280 280 279 281 285 290 293 295 297 302 304 305 305 306 313 316 316 320 324 323 328 337 345 347 351 353 353 354 355 354 354
261 264 266 267 269 270 270 271 274 274 274 274 275 275 276 277 278 281 285 287 289 293 296 299 301 301 302 307 312 315 318 325 330 333 336 341 344 348 350 352 353 354 354 354
260 262 263 264 264 266 268 270 272 274 274 274 273 273 274 275 276 277 278 282 286 289 290 291 292 293 297 302 307 313 316 322 327 329 332 338 342 345 346 349 352 354 355 356
259 261 261 262 263 263 265 268 269 270 271 272 271 271 273 273 274 274 276 279 284 286 285 285 284 285 291 294 299 306 310 314 318 323 328 331 337 341 343 347 349 351 352 354
259 259 259 260 260 261 263 264 266 266 268 270 269 269 271 273 273 273 274 277 278 281 282 282 281 281 284 285 290 299 303 308 310 314 320 326 329 333 338 343 347 349 349 350
260 260 261 259 259 260 261 262 261 261 263 266 267 268 269 270 270 271 272 273 274 276 278 279 278 278 281 281 285 291 295 300 303 307 312 317 322 326 330 336 339 342 344 346
261 261 259 258 258 258 259 260 261 260 260 263 265 267 268 267 267 268 270 271 271 273 275 276 276 275 278 281 283 286 292 296 298 301 305 309 313 316 320 325 331 334 338 342
261 260 259 258 257 256 256 258 260 261 259 260 262 263 265 266 266 266 267 268 269 270 271 271 272 272 274 277 279 282 286 289 292 295 298 302 305 309 311 316 323 328 331 334
260 259 259 258 259 258 258 259 259 259 259 259 259 261 262 263 263 264 264 264 266 268 269 269 268 268 271 272 275 278 282 284 286 288 292 297 300 304 306 311 317 323 327 329
259 259 259 259 259 260 259 259 259 258 259 258 259 260 260 261 263 264 263 263 264 265 267 267 266 265 266 268 273 277 280 281 282 284 288 293 298 301 303 309 313 318 322 326
260 260 260 259 259 260 259 258 258 258 257 256 257 257 258 261 263 263 262 262 262 262 264 264 265 264 263 266 270 275 278 278 277 280 284 290 295 298 301 305 308 312 317 323
260 259 259 260 259 258 257 256 256 254 252 252 253 256 258 259 260 260 261 260 259 259 260 261 262 262 262 263 266 270 273 275 275 277 281 287 292 296 298 300 302 306 311 317
260 260 260 260 258 257 256 255 255 253 252 251 252 254 256 257 258 258 258 258 258 258 259 259 259 259 258 260 264 268 269 271 272 275 279 284 289 292 295 296 297 300 306 311
259 260 260 260 258 257 255 254 254 253 250 250 250 252 255 255 256 256 255 256 257 257 257 257 256 255 256 258 261 264 267 271 272 273 276 280 284 288 291 293 296 300 304 308
258 258 258 257 255 254 252 252 251 251 250 249 248 249 250 253 254 253 253 254 255 256 256 255 255 255 255 256 260 261 263 267 270 272 275 279 284 287 290 292 295 298 300 303
255 255 254 252 252 251 250 250 250 248 247 248 249 249 250 252 252 253 254 254 255 255 254 254 255 254 254 255 256 258 261 264 268 271 274 277 280 280 283 288 292 294 296 300
253 251 251 251 250 248 248 249 250 249 248 248 249 250 250 250 252 254 255 256 256 254 254 255 256 255 254 255 258 258 259 262 266 268 271 273 275 276 276 279 283 287 290 295
254 251 250 250 250 248 247 249 250 251 250 249 249 249 251 253 253 252 252 253 255 255 255 255 255 255 256 257 259 259 257 259 263 267 269 271 272 272 272 275 279 282 285 290
255 253 251 250 251 250 249 248 248 249 250 249 248 248 248 249 250 251 252 254 256 255 255 254 253 254 256 255 257 257 256 259 261 265 267 268 269 269 270 273 277 280 281 285
255 254 252 249 248 249 250 250 249 248 248 247 248 247 245 247 249 251 252 253 254 252 249 248 249 251 254 257 260 260 256 256 257 260 263 265 266 266 267 270 273 276 278 280
252 252 253 251 249 248 248 248 249 249 249 250 249 248 248 248 248 250 252 252 251 249 248 248 250 253 255 256 260 259 258 260 260 260 260 260 261 263 265 267 270 272 274 276
256 255 253 252 250 249 249 249 248 248 249 249 250 251 250 248 246 248 250 250 249 249 249 248 249 250 249 252 256 257 257 258 259 256 256 257 259 262 263 266 268 269 270 270
Height
5823 5823 5823 5822 5822 5822 5822 5822 5821 5820 5818 5816 5815 5813 5811 5808 5806 5804 5802 5800 5797 5795 5793 5791 5788 5785 5782 5780 5777 5775 5772 5769 5766 5763 5759 5756 5752 5749 5745 5742 5738 5734 5730 5726
5817 5817 5816 5816 5817 5817 5817 5816 5815 5814 5813 5812 5810 5808 5807 5805 5803 5801 5799 5797 5795 5793 5790 5788 5786 5784 5781 5778 5776 5774 5771 5768 5765 5762 5758 5755 5751 5747 5744 5740 5737 5733 5729 5726
5811 5811 5810 5810 5812 5811 5811 5811 5810 5809 5809 5807 5806 5804 5803 5801 5799 5798 5796 5794 5792 5790 5788 5786 5784 5782 5779 5777 5774 5772 5770 5767 5764 5761 5758 5754 5750 5747 5743 5740 5736 5732 5728 5725
5804 5805 5804 5807 5806 5806 5805 5804 5804 5803 5803 5801 5801 5800 5798 5797 5795 5794 5793 5791 5789 5787 5785 5784 5782 5779 5777 5775 5773 5770 5768 5765 5763 5760 5757 5753 5750 5746 5743 5739 5736 5732 5728 5724
5797 5797 5798 5799 5799 5799 5799 5798 5798 5797 5797 5796 5795 5794 5794 5793 5791 5790 5789 5787 5786 5784 5782 5781 5779 5777 5775 5773 5771 5768 5766 5763 5761 5758 5755 5752 5749 5746 5742 5739 5735 5732 5728 5724
5790 5790 5791 5792 5792 5792 5793 5791 5791 5791 5790 5790 5790 5790 5789 5788 5787 5786 5785 5783 5782 5781 5779 5777 5776 5774 5772 5771 5768 5766 5764 5761 5759 5757 5754 5751 5748 5745 5741 5738 5734 5731 5727 5723
5781 5782 5782 5784 5784 5785 5786 5785 5784 5784 5784 5784 5784 5784 5784 5783 5782 5781 5780 5779 5778 5777 5775 5774 5772 5771 5769 5768 5766 5764 5762 5759 5757 5755 5752 5750 5747 5744 5740 5737 5733 5730 5726 5722
5773 5774 5776 5775 5776 5777 5777 5777 5777 5777 5777 5777 5777 5777 5777 5777 5777 5776 5775 5774 5773 5772 5771 5770 5769 5767 5766 5765 5763 5761 5759 5757 5755 5753 5751 5748 5746 5743 5739 5736 5733 5729 5725 5721
5764 5766 5765 5766 5767 5767 5768 5769 5769 5769 5770 5770 5770 5770 5770 5770 5770 5770 5770 5769 5768 5767 5766 5765 5764 5763 5762 5761 5760 5758 5757 5755 5753 5751 5749 5747 5744 5741 5738 5735 5732 5728 5724 5720
5754 5755 5756 5757 5757 5758 5759 5760 5761 5761 5762 5763 5763 5763 5763 5764 5764 5764 5764 5763 5763 5762 5761 5761 5760 5759 5758 5757 5756 5755 5754 5752 5751 5749 5747 5744 5742 5739 5737 5734 5730 5727 5723 5719
5744 5746 5746 5747 5748 5749 5750 5751 5752 5753 5754 5755 5756 5756 5757 5757 5757 5757 5757 5757 5757 5756 5756 5756 5755 5754 5754 5753 5752 5751 5750 5749 5748 5746 5744 5742 5739 5737 5735 5732 5729 5725 5722 5718
5736 5736 5737 5738 5739 5740 5741 5742 5743 5745 5746 5747 5748 5748 5749 5749 5750 5750 5750 5750 5750 5750 5750 5750 5750 5749 5749 5748 5748 5747 5746 5745 5744 5742 5740 5738 5736 5734 5732 5729 5726 5723 5720 5716
5725 5726 5727 5728 5729 5730 5731 5733 5734 5736 5737 5738 5739 5740 5741 5741 5742 5742 5743 5743 5744 5744 5744 5744 5744 5744 5744 5744 5743 5742 5742 5741 5739 5738 5736 5735 5733 5731 5728 5726 5723 5720 5717 5713
5715 5716 5717 5719 5720 5721 5722 5723 5725 5726 5728 5729 5731 5732 5733 5734 5734 5735 5735 5736 5736 5737 5737 5738 5738 5738 5738 5738 5738 5737 5736 5736 5735 5734 5732 5731 5729 5727 5725 5722 5719 5716 5713 5710
5706 5706 5708 5709 5710 5711 5713 5714 5715 5717 5718 5720 5722 5723 5724 5725 5726 5727 5727 5728 5729 5730 5730 5731 5731 5731 5732 5732 5732 5731 5731 5730 5730 5729 5727 5726 5724 5723 5720 5718 5715 5712 5709 5706
5696 5697 5698 5699 5701 5702 5703 5704 5706 5707 5709 5711 5712 5714 5716 5717 5718 5719 5720 5721 5721 5722 5723 5723 5724 5725 5725 5726 5726 5726 5725 5725 5724 5723 5722 5721 5720 5718 5716 5713 5711 5708 5705 5702
5686 5688 5688 5690 5691 5692 5693 5695 5696 5698 5700 5702 5704 5705 5707 5708 5709 5710 5712 5712 5713 5714 5715 5716 5717 5717 5718 5719 5719 5719 5719 5719 5718 5717 5717 5716 5714 5712 5710 5708 5706 5703 5701 5698
5676 5678 5679 5680 5681 5683 5684 5686 5687 5689 5690 5693 5695 5696 5698 5700 5701 5702 5703 5704 5705 5706 5707 5708 5709 5710 5711 5712 5712 5712 5712 5712 5712 5711 5711 5710 5708 5707 5705 5703 5701 5699 5696 5694
5667 5668 5669 5670 5672 5673 5675 5677 5679 5680 5682 5684 5686 5688 5690 5691 5692 5694 5695 5696 5696 5698 5699 5700 5701 5702 5703 5704 5705 5705 5706 5706 5705 5705 5704 5703 5702 5701 5699 5697 5695 5694 5692 5690
5658 5659 5660 5661 5662 5664 5666 5668 5670 5672 5674 5676 5677 5679 5681 5683 5684 5685 5687 5688 5689 5690 5691 5692 5693 5694 5695 5696 5697 5698 5699 5699 5699 5698 5698 5697 5696 5694 5693 5692 5690 5688 5687 5685
5649 5650 5651 5652 5654 5655 5657 5659 5661 5664 5666 5667 5669 5671 5673 5675 5676 5677 5679 5680 5682 5682 5683 5684 5686 5687 5688 5689 5689 5690 5691 5692 5692 5692 5691 5690 5689 5688 5687 5686 5685 5684 5682 5680
5641 5642 5643 5645 5646 5648 5650 5652 5654 5656 5658 5659 5661 5663 5665 5667 5668 5670 5671 5672 5674 5675 5676 5677 5678 5679 5680 5681 5682 5683 5684 5684 5685 5685 5685 5684 5683 5682 5682 5681 5680 5679 5678 5676
5633 5634 5636 5637 5639 5640 5642 5644 5646 5648 5650 5652 5654 5655 5657 5659 5660 5662 5664 5665 5666 5667 5669 5670 5671 5672 5673 5674 5675 5676 5677 5677 5678 5678 5678 5677 5677 5676 5676 5675 5675 5674 5673 5672
5626 5627 5628 5630 5631 5633 5635 5636 5638 5640 5642 5644 5646 5648 5650 5651 5653 5655 5656 5657 5658 5660 5661 5662 5664 5665 5666 5667 5668 5669 5670 5670 5671 5671 5671 5671 5671 5671 5670 5670 5670 5669 5668 5667
5619 5620 5621 5622 5624 5625 5627 5629 5630 5632 5634 5636 5638 5640 5642 5643 5645 5647 5648 5650 5651 5652 5654 5655 5657 5658 5660 5661 5662 5662 5663 5664 5664 5665 5665 5665 5665 5665 5665 5665 5664 5664 5663 5662
5612 5613 5614 5615 5616 5618 5619 5621 5623 5625 5627 5628 5630 5632 5633 5635 5637 5639 5640 5642 5643 5645 5646 5648 5650 5651 5653 5654 5655 5656 5657 5657 5658 5658 5659 5659 5659 5659 5659 5659 5659 5659 5659 5658
5605 5606 5607 5608 5610 5611 5612 5614 5616 5617 5619 5621 5622 5624 5625 5627 5629 5630 5632 5634 5636 5637 5639 5641 5642 5644 5645 5647 5648 5649 5650 5651 5652 5652 5653 5653 5653 5654 5654 5654 5654 5654 5654 5653